Regional Weather Roundup
Issued by NWS Midland/Odessa, TX

Home | Current Version | Previous Version | Text Only | Print | Product List | Glossary On
Versions: 1 2 3 4 5 6 7 8 9 10 11 12 13 14 15 16 17 18 19 20 21 22 23 24 25 26 27 28 29 30 31 32 33 34 35 36 37 38 39 40 41 42 43 44 45 46 47 48 49 50
163
ASUS44 KMAF 201001
RWRMAF
MIDLAND AREA WEATHER ROUNDUP
NATIONAL WEATHER SERVICE MIDLAND TX
400 AM CST TUE FEB 20 2018

...IN SOUTHWEST TEXAS AND SOUTHEAST NEW MEXICO...

CITY           SKY/WX    TMP DP  RH WIND       PRES   REMARKS
ALPINE         MOCLDY    59  38  45 SW17G26   29.92S
ANDREWS        FAIR      56  42  58 SW12      29.77F
ARTESIA        CLEAR     59  32  36 CALM      29.76R
BIG SPRING     CLOUDY    64  54  71 S17       29.77S
CARLSBAD       CLEAR     52  38  58 NE3       29.74R
DRYDEN           N/A     58  54  86 E3        29.79F
FORT STOCKTON  NOT AVBL
GUAD PASS      NOT AVBL
HOBBS          CLEAR     45  37  76 W10       29.77R WCI  39
LAMESA         CLOUDY    59  50  72 SW9       29.76R
MARFA            N/A     50  37  61 MISG        N/A
MIDLAND AIRPK    N/A     67  50  54 SW10      29.76S
MIDLAND INTL   CLOUDY    65  50  58 S15       29.76R
ODESSA         CLOUDY    62  49  62 SW9       29.78R
PECOS          CLEAR     60  37  42 W14       29.76S
PRESIDIO       FAIR      67  37  33 W12G18    29.86F
SEMINOLE       CLEAR     52  40  62 S10       29.79R
SNYDER         CLEAR     63  55  76 S17       29.75S
WINK           CLEAR     53  35  50 W8        29.76R
$$
...OTHER STATIONS IN TEXAS...

CITY           SKY/WX    TMP DP  RH WIND       PRES   REMARKS
ABILENE        PTCLDY    67  57  70 S15       29.77R
AMARILLO       CLEAR     52  39  61 SW16G26   29.68R
AUSTIN         CLOUDY    71  68  90 S15       29.87S
BROWNSVILLE    CLOUDY    73  71  93 SE16      29.87F
CORPUS CHRISTI CLOUDY    71  70  96 SE21      29.88S
DALLAS FTW     LGT RAIN  72  66  81 S16       29.85R
DEL RIO        PTCLDY    71  66  84 E12       29.76F
EL PASO        PTCLDY    53  35  50 SW17      29.83S
HOUSTON INT    MOCLDY    72  67  84 S18G26    29.97R
LUBBOCK        PTCLDY    48  42  80 S3        29.74R
SAN ANGELO     PTCLDY    68  60  75 S12G26    29.78S
SAN ANTONIO    CLOUDY    71  64  78 S15G23    29.88R
WACO           CLOUDY    71  64  78 S15       29.90R
WICHITA FALLS  FRZ DRZL  27  25  92 N15       29.82F FOG     WCI  15
$$
...OTHER LOCATIONS IN NEW MEXICO...

CITY           SKY/WX    TMP DP  RH WIND       PRES   REMARKS
ALAMOGORDO     CLOUDY    50  36  57 S16G23    29.85R
ALBUQUERQUE    FLURRIES  30  20  66 N13G22    29.87R WCI  20
CANNON AFB     CLEAR     43  40  87 SW10      29.73R WCI  37
CLOVIS         NOT AVBL
HOLLOMAN AFB   NOT AVBL
ROSWELL        CLEAR     53  30  41 NW7       29.73R
RUIDOSO        NOT AVBL
SANTA FE       CLOUDY    28  21  75 SW12      29.80R WCI  18
TRUTH OR CONSE CLOUDY    46  34  62 S13       29.78R
TUCUMCARI      CLEAR     50  29  44 SW15      29.65R
$$




USA.gov is the U.S. government's official web portal to all federal, state and local government web resources and services.